Regional Weather Roundup
Issued by NWS Upton, NY

Home | Current Version | Previous Version | Text Only | Print | Product List | Glossary On
Versions: 1 2 3 4 5 6 7 8 9 10 11 12 13 14 15 16 17 18 19 20 21 22 23 24 25 26 27 28 29 30 31 32 33 34 35 36 37 38 39 40 41 42 43 44 45 46 47 48 49 50
000
ASUS41 KOKX 310614
RWROKX

Regional Weather Roundup
National Weather Service New York NY
200 AM EDT SAT JUL 31 2021

Note: "FAIR" indicates few or no clouds below 12,000 feet with no
significant weather and/or obstructions to visibility.

NYZ071-072-176-178-NJZ106-104-310700-
New York City Metro Area

CITY           SKY/WX    TMP DP  RH WIND       PRES   REMARKS
Central Park   CLEAR     65  47  52 VRB7      29.99F
Bronx Lehman C   N/A     64  48  55 N7          N/A
LaGuardia Arpt CLEAR     67  47  48 N13       29.95S
Queens College   N/A     64  48  55 N9          N/A
Kennedy Intl   CLEAR     66  47  50 N17       29.96S
Breezy Point     N/A     66 N/A N/A N9          N/A
Brooklyn Coll    N/A     66  45  45 N12         N/A
Staten Island    N/A     64  48  55 N12         N/A
Newark/Liberty CLEAR     66  48  52 N13       29.96F
Teterboro      CLEAR     62  47  57 N7        29.95F
$$

NYZ177-179-078>081-310700-
Long Island New York

CITY           SKY/WX    TMP DP  RH WIND       PRES   REMARKS
Jones Beach      N/A     66 N/A N/A N12         N/A
Wantagh          N/A     64  48  55 N6          N/A
Hempstead      NOT AVBL
Matinecock Pt    N/A     66 N/A N/A N14         N/A
Farmingdale    CLEAR     65  47  52 N5        29.96S
MacArthur/ISP  CLEAR     64  48  56 N3        29.95S
Shirley        CLEAR     64  47  53 NW10      29.95S
Mt Sinai Harb    N/A     66 N/A N/A N10G18      N/A
Westhampton    NOT AVBL
East Hampton   FAIR      64  50  61 NW9       29.93R
Southold         N/A     64  52  63 N12         N/A
Montauk          N/A     66  51  58 N15G24    29.93S
$$

NYZ052-065-067-310700-
Hudson Valley

CITY           SKY/WX    TMP DP  RH WIND       PRES   REMARKS
White Plains   CLEAR     59  47  64 N6        29.97S
Larchmont Harb   N/A     64 N/A N/A NW5         N/A
Croton On Huds   N/A     61 N/A N/A N5          N/A
Somers           N/A    N/A N/A N/A NW1         N/A
Brewster         N/A     50  48  93 N2          N/A
Newburgh       CLEAR     55  50  82 NW8       29.99S
Montgomery     CLEAR     52  49  89 CALM      29.98F
Otisville        N/A     50  48  93 S2          N/A
Warwick          N/A     52  50  93 E1          N/A
Suffern          N/A     59  48  67 NW2         N/A
Poughkeepsie   CLEAR     53  50  89 E3        29.97F
Albany         PTCLDY    51  50  96 W3        29.96F
$$

NJZ001-105-106-008-010-013-015-019>022-104-310700-
New Jersey

CITY           SKY/WX    TMP DP  RH WIND       PRES   REMARKS
Newark/Liberty CLEAR     66  48  52 N13       29.96F
Teterboro      CLEAR     62  47  57 N7        29.95F
Caldwell       CLEAR     63  47  55 NE3       29.98F
Somerville     CLEAR     57  51  80 CALM      29.97R
Linden         FAIR      65  46  50 N5        29.97F
Perth Amboy      N/A     64 N/A N/A N7          N/A
Sussex         CLEAR     53  51  93 CALM      30.00F
Andover          N/A     58  50  75 CALM      29.99F
Trenton        CLEAR     62  51  67 CALM      29.99R
Millville      PTCLDY    67  53  61 NE6       29.98R
Atlantic City  CLEAR     65  54  67 CALM      29.98R
Wrightstown    CLEAR     60  51  72 N7        29.98R
Toms River     NOT AVBL
Belmar         CLEAR     63  50  62 N8        29.99R
$$

PAZ047>061-062-071-310700-
Eastern Pennsylvania

CITY           SKY/WX    TMP DP  RH WIND       PRES   REMARKS
Philadelphia   PTCLDY    68  48  48 N13       30.00R
Allentown      CLEAR     58  48  69 N5        30.00S
Scranton       CLEAR     55  51  86 CALM      30.02F
$$

CTZ002-004>006-009-010-012-RIZ004-006-007-MAZ004-011-015-310700-
Southern New England

 In CT

CITY           SKY/WX    TMP DP  RH WIND       PRES   REMARKS
Bradley Intl   CLEAR     58  49  72 NW7       29.95S
Hartford       CLEAR     62  48  60 NW5       29.95S
Danbury        CLEAR     60  47  61 CALM      29.98F
Wtrbury/Oxford CLEAR     57  49  74 NW6       29.98S
Norwalk Harbor   N/A     61 N/A N/A NW9         N/A
Bridgeport     CLEAR     63  48  58 NW5       29.95S
Meriden        CLEAR     60  47  61 NW6       29.95S
New Haven      CLEAR     64  49  57 N8        29.95S
Chester        FAIR      61  50  67 NW9G16    29.94F
Groton         CLEAR     62  50  64 N10       29.92S
Willimantic    CLEAR     60  50  69 VRB5      29.96R

 In RI

CITY           SKY/WX    TMP DP  RH WIND       PRES   REMARKS
Providence     CLEAR     62  47  57 NW7       29.91F
Block Island   CLEAR     62  51  67 N13G20    29.92S
Westerly       CLEAR     60  50  69 VRB3      29.92R

In MA

CITY           SKY/WX    TMP DP  RH WIND       PRES   REMARKS
Boston         CLEAR     64  46  52 W12       29.90R
Worcester      CLEAR     54  44  69 W7        29.93F
Westfield      CLEAR     54  51  90 SE3       29.94F
Provincetown   CLEAR     64  50  60 NW16G23   29.88S
Nantucket      CLEAR     69  52  54 N13       29.87F
$$

ANZ330-335-338-340-345-350-353-355-310700-
Coastal Marine Observations


STATION/POSITION TIME  SKY/WX   TEMP    WIND        PRES    VSBY  WAVE
                                AIR SEA DIR/SP/G                  HT/PER
                 (UTC)          (F)     (DEG/KT/KT) (MB)    (MI)  (FT/S)
NY Harb Entrance 0550               73  350/ 16/ 19 1013.8          3/ 7
20 S Fire Island 0550               69              1013.6          4/ 7
Great South Bay  0515            68 80  340/ 10/ 17   N/A
23 SSW Montauk P 0550            68 71  340/ 19/ 25 1013.1          4/ 8
15 E Barnegat Li 0556               75                N/A           5/ 5
Hudson Canyon    0550            73 73  350/ 16/ 19 1013.7          5/ 7
Kings Point      0524            67      30/  8/ 12 1015.6
Execution Rocks  0545            67     340/  8/ 10   N/A
Western LI Sound 0545            66     350/ 12/ 14   N/A
Central LI Sound 0500            68 73  320/ 17/ 23   N/A           2
Robbins Reef     0524            67     350/ 13/ 17 1014.5
$$


>>>>>>>>>>>>>>>>>>>>>>>>>>>> KEY <<<<<<<<<<<<<<<<<<<<<<<<<<<
>                                                          <
>     SKY/WX - Sky Condition/Present Weather               <
>     TMP    - Temperature in Fahrenheit                   <
>     DP     - Dew Point in Fahrenheit                     <
>     RH     - Relative Humidity in Percent                <
>     WIND   - Direction (from) and Speed in MPH           <
>     PRES   - Mean Sea Level Pressure (inches of Hg)      <
>     WCI    - Wind Chill Index                            <
>     VSB    - Visibility in Miles                         <
>     HX     - Heat Index                                  <
>     TC     - Temperature in Celsius                      <
>     VRB    - Variable Wind Direction                     <
>                                                          <
>>>>>>>>>>>>>>>>>>>>>>>>>>>> KEY <<<<<<<<<<<<<<<<<<<<<<<<<<<



USA.gov is the U.S. government's official web portal to all federal, state and local government web resources and services.